SAA223 SBGR-FAOR

Flight info

Callsign SAA223
Flight time N/A
Altitude 37000
Route UREMI UZ42 CXI UL340 ADA UL224 CIDER DCT 25S034W 26S028W 27S022W 28S016W 29S010W/N0449F390 29S004W 29S002E 29S008E DCT EGRAP/N0398F270 UQ11 OKTEL/N0449F390 UQ11 AVUSA UQ19 AVAGO AVAGO1D
Aircraft A343/H-SDE2E3FGHIJ4J5M1RWXY/LB1D1

Departure

Time 2026-05-07 03:13
Airport São Paulo/Guarulhos–Governor André Franco Montoro International Airport (SBGR)

Arrival

Time N/A
Airport O.R. Tambo International Airport (FAOR)
Time Latitude Longitude Altitude Speed Heading
2026-05-07 03:10 -23.43397 -46.48224 2477 ft 0 kts 73°
2026-05-07 03:11 -23.43394 -46.48211 2477 ft 9 kts 74°
2026-05-07 03:11 -23.43333 -46.47974 2478 ft 57 kts 74°
2026-05-07 03:12 -23.43176 -46.47394 2478 ft 100 kts 73°
2026-05-07 03:12 -23.42942 -46.46533 2478 ft 136 kts 73°
2026-05-07 03:12 -23.42645 -46.45426 2480 ft 167 kts 74°
2026-05-07 03:12 -23.42331 -46.44209 2931 ft 162 kts 74°
2026-05-07 03:13 -23.42028 -46.43034 3344 ft 165 kts 75°
2026-05-07 03:13 -23.41765 -46.41823 3774 ft 166 kts 77°
2026-05-07 03:13 -23.41514 -46.40571 4107 ft 176 kts 71°
2026-05-07 03:13 -23.41061 -46.39276 4405 ft 189 kts 67°
2026-05-07 03:14 -23.40572 -46.37916 4835 ft 196 kts 68°
2026-05-07 03:14 -23.40201 -46.36471 5270 ft 203 kts 82°
2026-05-07 03:14 -23.40859 -46.33326 5929 ft 232 kts 108°
2026-05-07 03:15 -23.41443 -46.31583 6163 ft 255 kts 108°
2026-05-07 03:15 -23.42070 -46.29714 6589 ft 269 kts 108°
2026-05-07 03:15 -23.42714 -46.27773 7135 ft 276 kts 108°
2026-05-07 03:15 -23.43370 -46.25784 7773 ft 281 kts 108°
2026-05-07 03:16 -23.43927 -46.23737 8444 ft 283 kts 101°
2026-05-07 03:16 -23.44323 -46.21624 9128 ft 286 kts 98°
2026-05-07 03:16 -23.44692 -46.19480 9780 ft 290 kts 99°
2026-05-07 03:16 -23.45061 -46.17328 10292 ft 299 kts 99°
2026-05-07 03:17 -23.45454 -46.15041 10592 ft 314 kts 99°
2026-05-07 03:17 -23.45867 -46.12649 10857 ft 329 kts 100°
2026-05-07 03:17 -23.46301 -46.10138 11099 ft 344 kts 99°
2026-05-07 03:17 -23.46753 -46.07526 11425 ft 355 kts 99°
2026-05-07 03:18 -23.47057 -46.05768 11757 ft 358 kts 99°
2026-05-07 03:18 -23.47523 -46.03081 12273 ft 362 kts 100°
2026-05-07 03:18 -23.47992 -46.00365 12781 ft 367 kts 100°
2026-05-07 03:18 -23.48621 -45.96724 13122 ft 371 kts 100°
2026-05-07 03:19 -23.48981 -45.93938 13141 ft 370 kts 91°
2026-05-07 03:19 -23.48875 -45.92044 13187 ft 370 kts 79°
2026-05-07 03:19 -23.48287 -45.89307 13513 ft 372 kts 75°
2026-05-07 03:19 -23.47618 -45.86615 14064 ft 374 kts 75°
2026-05-07 03:20 -23.46937 -45.83874 14545 ft 376 kts 75°
2026-05-07 03:20 -23.46255 -45.81115 15025 ft 378 kts 75°
2026-05-07 03:20 -23.45570 -45.78335 15462 ft 382 kts 75°
2026-05-07 03:20 -23.44881 -45.75531 15933 ft 385 kts 75°
2026-05-07 03:21 -23.44185 -45.72695 16394 ft 389 kts 75°
2026-05-07 03:21 -23.43484 -45.69844 16877 ft 392 kts 76°
2026-05-07 03:21 -23.42773 -45.66953 17366 ft 395 kts 76°
2026-05-07 03:21 -23.42058 -45.64046 17852 ft 398 kts 76°
2026-05-07 03:22 -23.41338 -45.61120 18339 ft 402 kts 76°
2026-05-07 03:22 -23.40610 -45.58169 18748 ft 405 kts 76°
2026-05-07 03:22 -23.39884 -45.55227 19128 ft 409 kts 76°
2026-05-07 03:22 -23.39142 -45.52221 19522 ft 413 kts 76°
2026-05-07 03:23 -23.38406 -45.49189 19919 ft 416 kts 77°
2026-05-07 03:23 -23.37724 -45.46107 20306 ft 419 kts 78°
2026-05-07 03:23 -23.37073 -45.42991 20695 ft 423 kts 79°
2026-05-07 03:23 -23.36435 -45.39890 21089 ft 426 kts 79°
2026-05-07 03:24 -23.35784 -45.36731 21475 ft 429 kts 79°
2026-05-07 03:24 -23.35119 -45.33543 21871 ft 433 kts 79°
2026-05-07 03:24 -23.34441 -45.30332 22258 ft 436 kts 79°
2026-05-07 03:24 -23.33754 -45.27110 22647 ft 439 kts 79°
2026-05-07 03:25 -23.33056 -45.23853 23036 ft 443 kts 79°
2026-05-07 03:25 -23.32353 -45.20585 23415 ft 446 kts 79°
2026-05-07 03:25 -23.31643 -45.17293 23791 ft 448 kts 79°